STARLINK-1132, 45044

Orbit data source: Space-Track

STARLINK-1132, 45044 is a payload satellite owned by SpaceX/Seattle (US) in LEO that was launched on Wed, 29 Jan 2020 UTC via an FALCON 9 launch vehicle from the Air Force Eastern Test Range (AFETR). Payload-class satellites include a variety of spacecraft equipped with specific instruments for various scientific and technological missions. These include communications satellites like Starlink; space stations such as the ISS; scientific satellites like the Hubble; Earth observation satellites from companies like Planet Labs, Umbra, and HawkEye 360; GPS; miniature CubeSats for education and research; and military/defense satellites.

Loading next visibility...
Identifier
45044, 2020-006A
Orbit
LEO
Last TLE update
10 hours ago
Origin
Manufacturer
SpaceX/Seattle
Mission
Operational Commercial Communications
Bus & Motor
STARLINK, Unknown motor
Mass
260 kg wet, ~248 kg dry
Launch date (UTC)
2020-01-29 (5 years ago)
Launch vehicle
FALCON 9
Launch site
Air Force Eastern Test Range (AFETR)
Object type
Payload
Rocket body
Debris
Shape & HBR
Box + 1 Pan, 8.86 m
Radar Cross Section
13.562 m², Large (>1 m²)

Expand to show TLE details & history

TLE from 10 hours ago
0 STARLINK-1132
1 45044U 20006A   25188.96595247 -.00000910  00000-0 -42206-4 0  9996
2 45044  53.0556 285.2245 0001134  81.2324 278.8794 15.06401069300190
Epoch: 2025-07-07T23:10Z
TLE epoch observation values (Epoch: 2025-07-07T23:10:58.293Z)
Latitude
0.00003°
Longitude
11.31392°
Altitude
547.966 km
Speed
7.589 km/s
True Right ascension
19h 00m 53s
True Declination
0° 00' 00"
Sunlit
Object was in full shadow at epoch
Visualization orbit readout
Latitude
11.93404°
Longitude
18.60918°
Altitude
547.024 km
Speed
7.591 km/s
Apparent Right ascension
16h 56m 00s
Apparent Declination
-43° 14' 57"
Sunlit
Object is in full shadow
Visualization observer readout
Local Sidereal Time
20:53:56
Azimuth
219.44° SW
Elevation
-8.974°
Doppler factor
1
Orbital elements
Apogee altitude
548.264 km
Perigee altitude
546.693 km
Semi-major axis
6,925.616 km
Eccentricity
0.00011
Inclination
53.0556°
RAAN
285.2245°
Arg. of periapsis
81.2324°
True anomaly
Unknown
Mean anomaly
278.8794°
Eccentric anomaly
Unknown
Mean motion
3.76579 °/min
Orbital period
95.6 mins
BSTAR
-0.000042206
Loading maneuver chart data...
Loading SW <> Apogee altitude chart data...

STARLINK-1132 Visibility forecast

Observer location: undefined°, undefined°

Span
Click to sort rows by Start time (UTC) header in descending order
Start Az.
Max El. time (UTC)
Max El. Az.
Max El.
End time (UTC)
End Az.
7 mins2025-07-08 08:54:09.677Z209.599° SW2025-07-08 08:57:09.677Z148.075° SSE38.67°2025-07-08 09:01:09.677Z58.974° ENE
5 mins2025-07-08 10:35:09.677Z290.7° WNW2025-07-08 10:37:09.677Z335.528° NNW24.864°2025-07-08 10:40:09.677Z29.5° NE
4 mins2025-07-08 13:57:09.677Z350.973° N2025-07-08 13:58:09.677Z7.934° NNE16.031°2025-07-08 14:01:09.677Z56.109° ENE
6 mins2025-07-08 15:36:09.677Z322.762° NNW2025-07-08 15:39:09.677Z55.756° ENE38.723°2025-07-08 15:42:09.677Z111.933° ESE
4 mins2025-07-08 17:16:09.677Z267.166° W2025-07-08 17:18:09.677Z229.828° WSW19.454°2025-07-08 17:20:09.677Z193.853° SSW
|